TITAN 3C TRANSTAGE DEB, 43452

Orbit data source: Space-Track

TITAN 3C TRANSTAGE DEB, 43452 is space debris in GEO originally from a launch on Sun, 09 Feb 1969 UTC launched from the Air Force Eastern Test Range (AFETR). Debris objects in space refer to the collection of defunct objects orbiting the Earth. Examples of debris include non-operational satellites, rocket bodies, and fragments generated from explosions, collisions, or faulty payload assembly.

Loading next visibility...
Identifier
43452, 1969-013K
Orbit
GEO
Last TLE update
1 week ago
Origin
Manufacturer
Martin Marietta
Mission
Spacecraft
Bus & Motor
Unknown
Mass
Unknown
Launch date (UTC)
1969-02-09 (56 years ago)
Launch vehicle
Unknown
Launch site
Air Force Eastern Test Range (AFETR)
Object type
Payload
Rocket body
Debris
Shape & HBR
Unknown
Radar Cross Section
RCS unknown

Expand to show TLE details & history

TLE from 1 week ago
0 TITAN 3C TRANSTAGE DEB
1 43452U 69013K   25174.92077890 -.00000144  00000-0  00000+0 0  9997
2 43452   0.6085 180.3355 0583308 288.3700 257.7366  1.03157147 27092
Epoch: 2025-06-23T22:05Z
TLE epoch observation values (Epoch: 2025-06-23T22:05:55.296Z)
Latitude
0.0055°
Longitude
116.19557°
Altitude
35,635.31 km
Speed
3.056 km/s
True Right ascension
00h 00m 00s
True Declination
0° 00' 20"
Sunlit
Object was in daylight at epoch
Visualization orbit readout
Latitude
0.57193°
Longitude
11.31635°
Altitude
36,966.964 km
Speed
2.959 km/s
Apparent Right ascension
16h 38m 51s
Apparent Declination
-5° 08' 27"
Sunlit
Object is in daylight
Visualization observer readout
Local Sidereal Time
20:24:42
Azimuth
243.065° WSW
Elevation
21.38°
Doppler factor
1
Orbital elements
Apogee altitude
37,411.219 km
Perigee altitude
32,584.244 km
Semi-major axis
41,375.868 km
Eccentricity
0.05833
Inclination
0.6085°
RAAN
180.3355°
Arg. of periapsis
288.37°
True anomaly
Unknown
Mean anomaly
257.7366°
Eccentric anomaly
Unknown
Mean motion
0.25788 °/min
Orbital period
1,395.98 mins
BSTAR
0
Loading historical data...
43452 neighbors
Loading maneuver chart data...
Loading SW <> Apogee altitude chart data...

TITAN 3C TRANSTAGE DEB Visibility forecast

Observer location: undefined°, undefined°

Span
Click to sort rows by Start time (UTC) header in descending order
Start Az.
Max El. time (UTC)
Max El. Az.
Max El.
End time (UTC)
End Az.
1440 mins2025-07-01 08:46:32.070Z243.051° WSW2025-07-02 06:05:32.070Z232.607° WSW25.853°2025-07-02 08:46:32.070Z234.755° WSW
|